Year,Month,Day,Hour,Minute,Value (Times are PST for temperature in C)
2018,05,23,00,00,13.70
2018,05,23,00,01,13.60
2018,05,23,00,02,13.60
2018,05,23,00,03,13.60
2018,05,23,00,04,13.60
2018,05,23,00,05,13.60
2018,05,23,00,06,13.60
2018,05,23,00,07,13.60
2018,05,23,00,08,13.60
2018,05,23,00,09,13.50
2018,05,23,00,10,13.50
2018,05,23,00,11,13.50
2018,05,23,00,12,13.50
2018,05,23,00,13,13.50
2018,05,23,00,14,13.40
2018,05,23,00,15,13.40
2018,05,23,00,16,13.40
2018,05,23,00,17,13.40
2018,05,23,00,18,13.30
2018,05,23,00,19,13.30
2018,05,23,00,20,13.30
2018,05,23,00,21,13.30
2018,05,23,00,22,13.30
2018,05,23,00,23,13.30
2018,05,23,00,24,13.20
2018,05,23,00,25,13.20
2018,05,23,00,26,13.20
2018,05,23,00,27,13.30
2018,05,23,00,28,13.30
2018,05,23,00,29,13.30
2018,05,23,00,30,13.30
2018,05,23,00,31,13.30
2018,05,23,00,32,13.30
2018,05,23,00,33,13.30
2018,05,23,00,34,13.20
2018,05,23,00,35,13.20
2018,05,23,00,36,13.20
2018,05,23,00,37,13.20
2018,05,23,00,38,13.20
2018,05,23,00,39,13.20
2018,05,23,00,40,13.10
2018,05,23,00,41,13.10
2018,05,23,00,42,13.10
2018,05,23,00,43,13.10
2018,05,23,00,44,13.00
2018,05,23,00,45,13.00
2018,05,23,00,46,13.00
2018,05,23,00,47,13.00
2018,05,23,00,48,12.90
2018,05,23,00,49,12.90
2018,05,23,00,50,12.80
2018,05,23,00,51,12.80
2018,05,23,00,52,12.80
2018,05,23,00,53,12.80
2018,05,23,00,54,12.70
2018,05,23,00,55,12.70
2018,05,23,00,56,12.60
2018,05,23,00,57,12.60
2018,05,23,00,58,12.50
2018,05,23,00,59,12.50
2018,05,23,01,00,12.50
2018,05,23,01,01,12.50
2018,05,23,01,02,12.40
2018,05,23,01,03,12.40
2018,05,23,01,04,12.30
2018,05,23,01,05,12.30
2018,05,23,01,06,12.30
2018,05,23,01,07,12.30
2018,05,23,01,08,12.30
2018,05,23,01,09,12.30
2018,05,23,01,10,12.30
2018,05,23,01,11,12.30
2018,05,23,01,12,12.30
2018,05,23,01,13,12.30
2018,05,23,01,14,12.30
2018,05,23,01,15,12.30
2018,05,23,01,16,12.30
2018,05,23,01,17,12.30
2018,05,23,01,18,12.30
2018,05,23,01,19,12.20
2018,05,23,01,20,12.20
2018,05,23,01,21,12.20
2018,05,23,01,22,12.10
2018,05,23,01,23,12.10
2018,05,23,01,24,12.10
2018,05,23,01,25,12.10
2018,05,23,01,26,12.00
2018,05,23,01,27,12.00
2018,05,23,01,28,12.00
2018,05,23,01,29,12.00
2018,05,23,01,30,12.00
2018,05,23,01,31,12.00
2018,05,23,01,32,12.00
2018,05,23,01,33,11.90
2018,05,23,01,34,11.90
2018,05,23,01,35,11.90
2018,05,23,01,36,11.90
2018,05,23,01,37,11.90
2018,05,23,01,38,11.80
2018,05,23,01,39,11.80
2018,05,23,01,40,11.80
2018,05,23,01,41,11.80
2018,05,23,01,42,11.80
2018,05,23,01,43,11.80
2018,05,23,01,44,11.70
2018,05,23,01,45,11.70
2018,05,23,01,46,11.70
2018,05,23,01,47,11.60
2018,05,23,01,48,11.60
2018,05,23,01,49,11.60
2018,05,23,01,50,11.60
2018,05,23,01,51,11.60
2018,05,23,01,52,11.60
2018,05,23,01,53,11.60
2018,05,23,01,54,11.60
2018,05,23,01,55,11.60
2018,05,23,01,56,11.60
2018,05,23,01,57,11.60
2018,05,23,01,58,11.60
2018,05,23,01,59,11.60
2018,05,23,02,00,11.60
2018,05,23,02,01,11.50
2018,05,23,02,02,11.40
2018,05,23,02,03,11.40
2018,05,23,02,04,11.40
2018,05,23,02,05,11.40
2018,05,23,02,06,11.40
2018,05,23,02,07,11.40
2018,05,23,02,08,11.40
2018,05,23,02,09,11.40
2018,05,23,02,10,11.40
2018,05,23,02,11,11.40
2018,05,23,02,12,11.40
2018,05,23,02,13,11.40
2018,05,23,02,14,11.40
2018,05,23,02,15,11.40
2018,05,23,02,16,11.40
2018,05,23,02,17,11.40
2018,05,23,02,18,11.40
2018,05,23,02,19,11.40
2018,05,23,02,20,11.40
2018,05,23,02,21,11.40
2018,05,23,02,22,11.40
2018,05,23,02,23,11.30
2018,05,23,02,24,11.30
2018,05,23,02,25,11.30
2018,05,23,02,26,11.20
2018,05,23,02,27,11.20
2018,05,23,02,28,11.20
2018,05,23,02,29,11.20
2018,05,23,02,30,11.20
2018,05,23,02,31,11.20
2018,05,23,02,32,11.20
2018,05,23,02,33,11.20
2018,05,23,02,34,11.30
2018,05,23,02,35,11.30
2018,05,23,02,36,11.30
2018,05,23,02,37,11.30
2018,05,23,02,38,11.30
2018,05,23,02,39,11.30
2018,05,23,02,40,11.30
2018,05,23,02,41,11.30
2018,05,23,02,42,11.20
2018,05,23,02,43,11.20
2018,05,23,02,44,11.20
2018,05,23,02,45,11.20
2018,05,23,02,46,11.20
2018,05,23,02,47,11.10
2018,05,23,02,48,11.10
2018,05,23,02,49,11.10
2018,05,23,02,50,11.10
2018,05,23,02,51,11.10
2018,05,23,02,52,11.10
2018,05,23,02,53,11.10
2018,05,23,02,54,11.00
2018,05,23,02,55,10.90
2018,05,23,02,56,10.90
2018,05,23,02,57,10.90
2018,05,23,02,58,10.90
2018,05,23,02,59,10.90
2018,05,23,03,00,10.90
2018,05,23,03,01,10.90
2018,05,23,03,02,10.90
2018,05,23,03,03,10.90
2018,05,23,03,04,10.90
2018,05,23,03,05,10.90
2018,05,23,03,06,10.90
2018,05,23,03,07,10.90
2018,05,23,03,08,10.90
2018,05,23,03,09,10.90
2018,05,23,03,10,10.90
2018,05,23,03,11,10.90
2018,05,23,03,12,10.90
2018,05,23,03,13,10.90
2018,05,23,03,14,10.90
2018,05,23,03,15,10.90
2018,05,23,03,16,10.90
2018,05,23,03,17,10.90
2018,05,23,03,18,10.90
2018,05,23,03,19,10.90
2018,05,23,03,20,10.90
2018,05,23,03,21,10.90
2018,05,23,03,22,10.80
2018,05,23,03,23,10.80
2018,05,23,03,24,10.80
2018,05,23,03,25,10.80
2018,05,23,03,26,10.70
2018,05,23,03,27,10.70
2018,05,23,03,28,10.70
2018,05,23,03,29,10.60
2018,05,23,03,30,10.60
2018,05,23,03,31,10.60
2018,05,23,03,32,10.60
2018,05,23,03,33,10.60
2018,05,23,03,34,10.60
2018,05,23,03,35,10.60
2018,05,23,03,36,10.60
2018,05,23,03,37,10.60
2018,05,23,03,38,10.60
2018,05,23,03,39,10.60
2018,05,23,03,40,10.60
2018,05,23,03,41,10.60
2018,05,23,03,42,10.50
2018,05,23,03,43,10.50
2018,05,23,03,44,10.40
2018,05,23,03,45,10.40
2018,05,23,03,46,10.40
2018,05,23,03,47,10.40
2018,05,23,03,48,10.40
2018,05,23,03,49,10.40
2018,05,23,03,50,10.40
2018,05,23,03,51,10.40
2018,05,23,03,52,10.40
2018,05,23,03,53,10.40
2018,05,23,03,54,10.40
2018,05,23,03,55,10.50
2018,05,23,03,56,10.60
2018,05,23,03,57,10.60
2018,05,23,03,58,10.60
2018,05,23,03,59,10.60
2018,05,23,04,00,10.60
2018,05,23,04,01,10.60
2018,05,23,04,02,10.50
2018,05,23,04,03,10.40
2018,05,23,04,04,10.40
2018,05,23,04,05,10.40
2018,05,23,04,06,10.40
2018,05,23,04,07,10.40
2018,05,23,04,08,10.40
2018,05,23,04,09,10.30
2018,05,23,04,10,10.30
2018,05,23,04,11,10.30
2018,05,23,04,12,10.30
2018,05,23,04,13,10.30
2018,05,23,04,14,10.30
2018,05,23,04,15,10.30
2018,05,23,04,16,10.30
2018,05,23,04,17,10.20
2018,05,23,04,18,10.20
2018,05,23,04,19,10.20
2018,05,23,04,20,10.20
2018,05,23,04,21,10.20
2018,05,23,04,22,10.10
2018,05,23,04,23,10.10
2018,05,23,04,24,10.10
2018,05,23,04,25,10.10
2018,05,23,04,26,10.10
2018,05,23,04,27,10.10
2018,05,23,04,28,10.10
2018,05,23,04,29,10.10
2018,05,23,04,30,10.10
2018,05,23,04,31,10.00
2018,05,23,04,32,9.90
2018,05,23,04,33,9.90
2018,05,23,04,34,9.90
2018,05,23,04,35,9.90
2018,05,23,04,36,9.90
2018,05,23,04,37,9.90
2018,05,23,04,38,9.90
2018,05,23,04,39,9.90
2018,05,23,04,40,9.90
2018,05,23,04,41,9.90
2018,05,23,04,42,9.90
2018,05,23,04,43,9.90
2018,05,23,04,44,9.90
2018,05,23,04,45,9.90
2018,05,23,04,46,9.90
2018,05,23,04,47,9.90
2018,05,23,04,48,9.90
2018,05,23,04,49,9.90
2018,05,23,04,50,9.80
2018,05,23,04,51,9.80
2018,05,23,04,52,9.80
2018,05,23,04,53,9.80
2018,05,23,04,54,9.80
2018,05,23,04,55,9.80
2018,05,23,04,56,9.80
2018,05,23,04,57,9.80
2018,05,23,04,58,9.70
2018,05,23,04,59,9.70
2018,05,23,05,00,9.70
2018,05,23,05,01,9.70
2018,05,23,05,02,9.70
2018,05,23,05,03,9.70
2018,05,23,05,04,9.70
2018,05,23,05,05,9.70
2018,05,23,05,06,9.70
2018,05,23,05,07,9.70
2018,05,23,05,08,9.70
2018,05,23,05,09,9.70
2018,05,23,05,10,9.70
2018,05,23,05,11,9.70
2018,05,23,05,12,9.70
2018,05,23,05,13,9.70
2018,05,23,05,14,9.70
2018,05,23,05,15,9.70
2018,05,23,05,16,9.70
2018,05,23,05,17,9.70
2018,05,23,05,18,9.70
2018,05,23,05,19,9.70
2018,05,23,05,20,9.70
2018,05,23,05,21,9.70
2018,05,23,05,22,9.70
2018,05,23,05,23,9.70
2018,05,23,05,24,9.70
2018,05,23,05,25,9.70
2018,05,23,05,26,9.70
2018,05,23,05,27,9.70
2018,05,23,05,28,9.70
2018,05,23,05,29,9.60
2018,05,23,05,30,9.60
2018,05,23,05,31,9.60
2018,05,23,05,32,9.60
2018,05,23,05,33,9.60
2018,05,23,05,34,9.60
2018,05,23,05,35,9.60
2018,05,23,05,36,9.60
2018,05,23,05,37,9.60
2018,05,23,05,38,9.50
2018,05,23,05,39,9.50
2018,05,23,05,40,9.50
2018,05,23,05,41,9.50
2018,05,23,05,42,9.50
2018,05,23,05,43,9.60
2018,05,23,05,44,9.60
2018,05,23,05,45,9.60
2018,05,23,05,46,9.60
2018,05,23,05,47,9.60
2018,05,23,05,48,9.60
2018,05,23,05,49,9.60
2018,05,23,05,50,9.60
2018,05,23,05,51,9.60
2018,05,23,05,52,9.50
2018,05,23,05,53,9.50
2018,05,23,05,54,9.50
2018,05,23,05,55,9.50
2018,05,23,05,56,9.50
2018,05,23,05,57,9.50
2018,05,23,05,58,9.50
2018,05,23,05,59,9.60
2018,05,23,06,00,9.60
2018,05,23,06,01,9.60
2018,05,23,06,02,9.70
2018,05,23,06,03,9.70
2018,05,23,06,04,9.70
2018,05,23,06,05,9.70
2018,05,23,06,06,9.70
2018,05,23,06,07,9.70
2018,05,23,06,08,9.80
2018,05,23,06,09,9.80
2018,05,23,06,10,9.80
2018,05,23,06,11,9.80
2018,05,23,06,12,9.80
2018,05,23,06,13,9.90
2018,05,23,06,14,9.90
2018,05,23,06,15,10.00
2018,05,23,06,16,10.10
2018,05,23,06,17,10.10
2018,05,23,06,18,10.10
2018,05,23,06,19,10.10
2018,05,23,06,20,10.20
2018,05,23,06,21,10.20
2018,05,23,06,22,10.20
2018,05,23,06,23,10.20
2018,05,23,06,24,10.30
2018,05,23,06,25,10.30
2018,05,23,06,26,10.40
2018,05,23,06,27,10.40
2018,05,23,06,28,10.40
2018,05,23,06,29,10.60
2018,05,23,06,30,10.60
2018,05,23,06,31,10.60
2018,05,23,06,32,10.70
2018,05,23,06,33,10.70
2018,05,23,06,34,10.80
2018,05,23,06,35,10.90
2018,05,23,06,36,10.90
2018,05,23,06,37,10.90
2018,05,23,06,38,11.10
2018,05,23,06,39,11.10
2018,05,23,06,40,11.20
2018,05,23,06,41,11.30
2018,05,23,06,42,11.40
2018,05,23,06,43,11.40
2018,05,23,06,44,11.50
2018,05,23,06,45,11.60
2018,05,23,06,46,11.60
2018,05,23,06,47,11.70
2018,05,23,06,48,11.80
2018,05,23,06,49,11.80
2018,05,23,06,50,11.90
2018,05,23,06,51,12.00
2018,05,23,06,52,12.10
2018,05,23,06,53,12.20
2018,05,23,06,54,12.30
2018,05,23,06,55,12.30
2018,05,23,06,56,12.40
2018,05,23,06,57,12.40
2018,05,23,06,58,12.40
2018,05,23,06,59,12.50
2018,05,23,07,00,12.50
2018,05,23,07,01,12.50
2018,05,23,07,02,12.60
2018,05,23,07,03,12.70
2018,05,23,07,04,12.80
2018,05,23,07,05,12.90
2018,05,23,07,06,13.00
2018,05,23,07,07,13.10
2018,05,23,07,08,13.20
2018,05,23,07,09,13.20
2018,05,23,07,10,13.30
2018,05,23,07,11,13.30
2018,05,23,07,12,13.30
2018,05,23,07,13,13.30
2018,05,23,07,14,13.30
2018,05,23,07,15,13.30
2018,05,23,07,16,13.40
2018,05,23,07,17,13.50
2018,05,23,07,18,13.60
2018,05,23,07,19,13.60
2018,05,23,07,20,13.70
2018,05,23,07,21,13.80
2018,05,23,07,22,13.80
2018,05,23,07,23,13.90
2018,05,23,07,24,14.00
2018,05,23,07,25,14.00
2018,05,23,07,26,14.10
2018,05,23,07,27,14.20
2018,05,23,07,28,14.20
2018,05,23,07,29,14.30
2018,05,23,07,30,14.40
2018,05,23,07,31,14.50
2018,05,23,07,32,14.50
2018,05,23,07,33,14.60
2018,05,23,07,34,14.60
2018,05,23,07,35,14.70
2018,05,23,07,36,14.80
2018,05,23,07,37,14.90
2018,05,23,07,38,15.00
2018,05,23,07,39,15.10
2018,05,23,07,40,15.30
2018,05,23,07,41,15.40
2018,05,23,07,42,15.50
2018,05,23,07,43,15.60
2018,05,23,07,44,15.70
2018,05,23,07,45,15.70
2018,05,23,07,46,15.80
2018,05,23,07,47,15.80
2018,05,23,07,48,15.90
2018,05,23,07,49,16.00
2018,05,23,07,50,16.10
2018,05,23,07,51,16.10
2018,05,23,07,52,16.10
2018,05,23,07,53,16.20
2018,05,23,07,54,16.30
2018,05,23,07,55,16.30
2018,05,23,07,56,16.30
2018,05,23,07,57,16.40
2018,05,23,07,58,16.40
2018,05,23,07,59,16.50
2018,05,23,08,00,16.60
2018,05,23,08,01,16.70
2018,05,23,08,02,16.70
2018,05,23,08,03,16.70
2018,05,23,08,04,16.80
2018,05,23,08,05,16.90
2018,05,23,08,06,16.90
2018,05,23,08,07,17.00
2018,05,23,08,08,17.00
2018,05,23,08,09,17.10
2018,05,23,08,10,17.20
2018,05,23,08,11,17.30
2018,05,23,08,12,17.30
2018,05,23,08,13,17.30
2018,05,23,08,14,17.30
2018,05,23,08,15,17.40
2018,05,23,08,16,17.50
2018,05,23,08,17,17.60
2018,05,23,08,18,17.70
2018,05,23,08,19,17.70
2018,05,23,08,20,17.80
2018,05,23,08,21,17.80
2018,05,23,08,22,17.90
2018,05,23,08,23,17.90
2018,05,23,08,24,17.90
2018,05,23,08,25,17.90
2018,05,23,08,26,18.00
2018,05,23,08,27,18.10
2018,05,23,08,28,18.10
2018,05,23,08,29,18.10
2018,05,23,08,30,18.10
2018,05,23,08,31,18.20
2018,05,23,08,32,18.20
2018,05,23,08,33,18.30
2018,05,23,08,34,18.30
2018,05,23,08,35,18.40
2018,05,23,08,36,18.50
2018,05,23,08,37,18.50
2018,05,23,08,38,18.60
2018,05,23,08,39,18.70
2018,05,23,08,40,18.80
2018,05,23,08,41,18.90
2018,05,23,08,42,18.90
2018,05,23,08,43,18.90
2018,05,23,08,44,18.90
2018,05,23,08,45,18.90
2018,05,23,08,46,18.80
2018,05,23,08,47,18.80
2018,05,23,08,48,18.70
2018,05,23,08,49,18.60
2018,05,23,08,50,18.60
2018,05,23,08,51,18.60
2018,05,23,08,52,18.70
2018,05,23,08,53,18.70
2018,05,23,08,54,18.60
2018,05,23,08,55,18.60
2018,05,23,08,56,18.70
2018,05,23,08,57,18.90
2018,05,23,08,58,18.90
2018,05,23,08,59,18.90
2018,05,23,09,00,18.90
2018,05,23,09,01,18.90
2018,05,23,09,02,18.90
2018,05,23,09,03,18.90
2018,05,23,09,04,18.90
2018,05,23,09,05,18.90
2018,05,23,09,06,18.90
2018,05,23,09,07,18.90
2018,05,23,09,08,19.10
2018,05,23,09,09,19.10
2018,05,23,09,10,19.10
2018,05,23,09,11,19.10
2018,05,23,09,12,19.20
2018,05,23,09,13,19.20
2018,05,23,09,14,19.20
2018,05,23,09,15,19.40
2018,05,23,09,16,19.40
2018,05,23,09,17,19.50
2018,05,23,09,18,19.60
2018,05,23,09,19,19.70
2018,05,23,09,20,19.80
2018,05,23,09,21,20.00
2018,05,23,09,22,20.20
2018,05,23,09,23,20.20
2018,05,23,09,24,20.20
2018,05,23,09,25,20.20
2018,05,23,09,26,20.30
2018,05,23,09,27,20.40
2018,05,23,09,28,20.50
2018,05,23,09,29,20.60
2018,05,23,09,30,20.70
2018,05,23,09,31,20.80
2018,05,23,09,32,20.80
2018,05,23,09,33,20.70
2018,05,23,09,34,20.60
2018,05,23,09,35,20.60
2018,05,23,09,36,20.70
2018,05,23,09,37,20.70
2018,05,23,09,38,20.70
2018,05,23,09,39,20.70
2018,05,23,09,40,20.80
2018,05,23,09,41,20.90
2018,05,23,09,42,21.00
2018,05,23,09,43,21.00
2018,05,23,09,44,20.90
2018,05,23,09,45,20.90
2018,05,23,09,46,20.90
2018,05,23,09,47,20.80
2018,05,23,09,48,20.80
2018,05,23,09,49,20.80
2018,05,23,09,50,20.80
2018,05,23,09,51,20.90
2018,05,23,09,52,21.00
2018,05,23,09,53,21.00
2018,05,23,09,54,21.00
2018,05,23,09,55,20.90
2018,05,23,09,56,20.90
2018,05,23,09,57,21.00
2018,05,23,09,58,21.00
2018,05,23,09,59,21.00
2018,05,23,10,00,21.00
2018,05,23,10,01,21.10
2018,05,23,10,02,21.10
2018,05,23,10,03,21.10
2018,05,23,10,04,21.10
2018,05,23,10,05,21.10
2018,05,23,10,06,21.10
2018,05,23,10,07,21.10
2018,05,23,10,08,21.20
2018,05,23,10,09,21.20
2018,05,23,10,10,21.10
2018,05,23,10,11,21.10
2018,05,23,10,12,21.10
2018,05,23,10,13,21.10
2018,05,23,10,14,21.10
2018,05,23,10,15,21.20
2018,05,23,10,16,21.20
2018,05,23,10,17,21.30
2018,05,23,10,18,21.30
2018,05,23,10,19,21.30
2018,05,23,10,20,21.30
2018,05,23,10,21,21.30
2018,05,23,10,22,21.40
2018,05,23,10,23,21.40
2018,05,23,10,24,21.40
2018,05,23,10,25,21.40
2018,05,23,10,26,21.30
2018,05,23,10,27,21.40
2018,05,23,10,28,21.40
2018,05,23,10,29,21.40
2018,05,23,10,30,21.50
2018,05,23,10,31,21.60
2018,05,23,10,32,21.60
2018,05,23,10,33,21.60
2018,05,23,10,34,21.60
2018,05,23,10,35,21.60
2018,05,23,10,36,21.60
2018,05,23,10,37,21.60
2018,05,23,10,38,21.70
2018,05,23,10,39,21.70
2018,05,23,10,40,21.80
2018,05,23,10,41,21.90
2018,05,23,10,42,21.90
2018,05,23,10,43,21.80
2018,05,23,10,44,21.80
2018,05,23,10,45,21.70
2018,05,23,10,46,21.70
2018,05,23,10,47,21.70
2018,05,23,10,48,21.70
2018,05,23,10,49,21.60
2018,05,23,10,50,21.60
2018,05,23,10,51,21.60
2018,05,23,10,52,21.60
2018,05,23,10,53,21.50
2018,05,23,10,54,21.40
2018,05,23,10,55,21.40
2018,05,23,10,56,21.40
2018,05,23,10,57,21.50
2018,05,23,10,58,21.40
2018,05,23,10,59,21.40
2018,05,23,11,00,21.40
2018,05,23,11,01,21.40
2018,05,23,11,02,21.50
2018,05,23,11,03,21.60
2018,05,23,11,04,21.60
2018,05,23,11,05,21.60
2018,05,23,11,06,21.60
2018,05,23,11,07,21.60
2018,05,23,11,08,21.60
2018,05,23,11,09,21.60
2018,05,23,11,10,21.60
2018,05,23,11,11,21.60
2018,05,23,11,12,21.60
2018,05,23,11,13,21.50
2018,05,23,11,14,21.40
2018,05,23,11,15,21.40
2018,05,23,11,16,21.30
2018,05,23,11,17,21.40
2018,05,23,11,18,21.50
2018,05,23,11,19,21.60
2018,05,23,11,20,21.80
2018,05,23,11,21,22.00
2018,05,23,11,22,22.10
2018,05,23,11,23,22.20
2018,05,23,11,24,22.30
2018,05,23,11,25,22.40
2018,05,23,11,26,22.50
2018,05,23,11,27,22.60
2018,05,23,11,28,22.70
2018,05,23,11,29,22.80
2018,05,23,11,30,22.80
2018,05,23,11,31,22.90
2018,05,23,11,32,22.90
2018,05,23,11,33,22.90
2018,05,23,11,34,22.90
2018,05,23,11,35,22.90
2018,05,23,11,36,22.90
2018,05,23,11,37,22.90
2018,05,23,11,38,22.70
2018,05,23,11,39,22.50
2018,05,23,11,40,22.40
2018,05,23,11,41,22.30
2018,05,23,11,42,22.30
2018,05,23,11,43,22.30
2018,05,23,11,44,22.40
2018,05,23,11,45,22.40
2018,05,23,11,46,22.60
2018,05,23,11,47,22.60
2018,05,23,11,48,22.50
2018,05,23,11,49,22.50
2018,05,23,11,50,22.50
2018,05,23,11,51,22.50
2018,05,23,11,52,22.50
2018,05,23,11,53,22.50
2018,05,23,11,54,22.40
2018,05,23,11,55,22.30
2018,05,23,11,56,22.20
2018,05,23,11,57,22.20
2018,05,23,11,58,22.10
2018,05,23,11,59,22.00
2018,05,23,12,00,21.70
2018,05,23,12,01,21.50
2018,05,23,12,02,21.30
2018,05,23,12,03,21.30
2018,05,23,12,04,21.10
2018,05,23,12,05,20.90
2018,05,23,12,06,20.70
2018,05,23,12,07,20.60
2018,05,23,12,08,20.50
2018,05,23,12,09,20.50
2018,05,23,12,10,20.60
2018,05,23,12,11,20.70
2018,05,23,12,12,20.70
2018,05,23,12,13,20.80
2018,05,23,12,14,20.90
2018,05,23,12,15,20.80
2018,05,23,12,16,20.70
2018,05,23,12,17,20.60
2018,05,23,12,18,20.40
2018,05,23,12,19,20.40
2018,05,23,12,20,20.50
2018,05,23,12,21,20.60
2018,05,23,12,22,20.70
2018,05,23,12,23,20.60
2018,05,23,12,24,20.60
2018,05,23,12,25,20.60
2018,05,23,12,26,20.60
2018,05,23,12,27,20.80
2018,05,23,12,28,20.90
2018,05,23,12,29,20.90
2018,05,23,12,30,20.80
2018,05,23,12,31,20.80
2018,05,23,12,32,20.80
2018,05,23,12,33,20.80
2018,05,23,12,34,20.90
2018,05,23,12,35,20.90
2018,05,23,12,36,20.80
2018,05,23,12,37,20.80
2018,05,23,12,38,20.90
2018,05,23,12,39,21.00
2018,05,23,12,40,21.10
2018,05,23,12,41,21.20
2018,05,23,12,42,21.10
2018,05,23,12,43,21.10
2018,05,23,12,44,21.10
2018,05,23,12,45,21.20
2018,05,23,12,46,21.20
2018,05,23,12,47,21.20
2018,05,23,12,48,21.20
2018,05,23,12,49,21.20
2018,05,23,12,50,21.30
2018,05,23,12,51,21.30
2018,05,23,12,52,21.30
2018,05,23,12,53,21.30
2018,05,23,12,54,21.30
2018,05,23,12,55,21.30
2018,05,23,12,56,21.30
2018,05,23,12,57,21.30
2018,05,23,12,58,21.50
2018,05,23,12,59,21.50
2018,05,23,13,00,21.40
2018,05,23,13,01,21.30
2018,05,23,13,02,21.30
2018,05,23,13,03,21.30
2018,05,23,13,04,21.30
2018,05,23,13,05,21.50
2018,05,23,13,06,21.60
2018,05,23,13,07,21.60
2018,05,23,13,08,21.60
2018,05,23,13,09,21.70
2018,05,23,13,10,21.80
2018,05,23,13,11,21.80
2018,05,23,13,12,21.90
2018,05,23,13,13,21.90
2018,05,23,13,14,21.80
2018,05,23,13,15,21.70
2018,05,23,13,16,21.50
2018,05,23,13,17,21.40
2018,05,23,13,18,21.50
2018,05,23,13,19,21.60
2018,05,23,13,20,21.60
2018,05,23,13,21,21.60
2018,05,23,13,22,21.40
2018,05,23,13,23,21.40
2018,05,23,13,24,21.50
2018,05,23,13,25,21.60
2018,05,23,13,26,21.50
2018,05,23,13,27,21.50
2018,05,23,13,28,21.60
2018,05,23,13,29,21.60
2018,05,23,13,30,21.60
2018,05,23,13,31,21.70
2018,05,23,13,32,21.80
2018,05,23,13,33,21.90
2018,05,23,13,34,21.90
2018,05,23,13,35,21.80
2018,05,23,13,36,21.70
2018,05,23,13,37,21.70
2018,05,23,13,38,21.70
2018,05,23,13,39,21.60
2018,05,23,13,40,21.60
2018,05,23,13,41,21.60
2018,05,23,13,42,21.60
2018,05,23,13,43,21.50
2018,05,23,13,44,21.40
2018,05,23,13,45,21.40
2018,05,23,13,46,21.40
2018,05,23,13,47,21.40
2018,05,23,13,48,21.50
2018,05,23,13,49,21.60
2018,05,23,13,50,21.70
2018,05,23,13,51,21.80
2018,05,23,13,52,21.80
2018,05,23,13,53,21.80
2018,05,23,13,54,21.70
2018,05,23,13,55,21.60
2018,05,23,13,56,21.60
2018,05,23,13,57,21.60
2018,05,23,13,58,21.60
2018,05,23,13,59,21.50
2018,05,23,14,00,21.50
2018,05,23,14,01,21.60
2018,05,23,14,02,21.60
2018,05,23,14,03,21.60
2018,05,23,14,04,21.60
2018,05,23,14,05,21.60
2018,05,23,14,06,21.70
2018,05,23,14,07,21.70
2018,05,23,14,08,21.60
2018,05,23,14,09,21.60
2018,05,23,14,10,21.60
2018,05,23,14,11,21.60
2018,05,23,14,12,21.70
2018,05,23,14,13,21.70
2018,05,23,14,14,21.80
2018,05,23,14,15,22.00
2018,05,23,14,16,22.00
2018,05,23,14,17,22.00
2018,05,23,14,18,22.10
2018,05,23,14,19,22.10
2018,05,23,14,20,22.20
2018,05,23,14,21,22.30
2018,05,23,14,22,22.30
2018,05,23,14,23,22.30
2018,05,23,14,24,22.10
2018,05,23,14,25,22.00
2018,05,23,14,26,22.10
2018,05,23,14,27,22.10
2018,05,23,14,28,22.10
2018,05,23,14,29,21.90
2018,05,23,14,30,21.80
2018,05,23,14,31,21.90
2018,05,23,14,32,21.90
2018,05,23,14,33,22.10
2018,05,23,14,34,22.30
2018,05,23,14,35,22.30
2018,05,23,14,36,22.30
2018,05,23,14,37,22.30
2018,05,23,14,38,22.30
2018,05,23,14,39,22.30
2018,05,23,14,40,22.30
2018,05,23,14,41,22.30
2018,05,23,14,42,22.30
2018,05,23,14,43,22.30
2018,05,23,14,44,22.30
2018,05,23,14,45,22.30
2018,05,23,14,46,22.30
2018,05,23,14,47,22.40
2018,05,23,14,48,22.40
2018,05,23,14,49,22.40
2018,05,23,14,50,22.40
2018,05,23,14,51,22.40
2018,05,23,14,52,22.40
2018,05,23,14,53,22.40
2018,05,23,14,54,22.50
2018,05,23,14,55,22.30
2018,05,23,14,56,22.20
2018,05,23,14,57,22.20
2018,05,23,14,58,22.10
2018,05,23,14,59,22.10
2018,05,23,15,00,22.00
2018,05,23,15,01,22.00
2018,05,23,15,02,22.00
2018,05,23,15,03,22.00
2018,05,23,15,04,22.10
2018,05,23,15,05,22.20
2018,05,23,15,06,22.40
2018,05,23,15,07,22.40
2018,05,23,15,08,22.40
2018,05,23,15,09,22.30
2018,05,23,15,10,22.30
2018,05,23,15,11,22.20
2018,05,23,15,12,22.10
2018,05,23,15,13,22.10
2018,05,23,15,14,22.10
2018,05,23,15,15,22.20
2018,05,23,15,16,22.30
2018,05,23,15,17,22.40
2018,05,23,15,18,22.50
2018,05,23,15,19,22.70
2018,05,23,15,20,22.80
2018,05,23,15,21,22.90
2018,05,23,15,22,23.00
2018,05,23,15,23,23.10
2018,05,23,15,24,23.00
2018,05,23,15,25,22.90
2018,05,23,15,26,22.90
2018,05,23,15,27,22.90
2018,05,23,15,28,22.90
2018,05,23,15,29,22.90
2018,05,23,15,30,22.90
2018,05,23,15,31,22.90
2018,05,23,15,32,22.90
2018,05,23,15,33,22.90
2018,05,23,15,34,22.90
2018,05,23,15,35,22.90
2018,05,23,15,36,22.90
2018,05,23,15,37,22.80
2018,05,23,15,38,22.70
2018,05,23,15,39,22.70
2018,05,23,15,40,22.70
2018,05,23,15,41,22.90
2018,05,23,15,42,23.00
2018,05,23,15,43,23.20
2018,05,23,15,44,23.30
2018,05,23,15,45,23.40
2018,05,23,15,46,23.50
2018,05,23,15,47,23.70
2018,05,23,15,48,23.70
2018,05,23,15,49,23.80
2018,05,23,15,50,23.80
2018,05,23,15,51,23.80
2018,05,23,15,52,24.00
2018,05,23,15,53,24.10
2018,05,23,15,54,24.20
2018,05,23,15,55,24.20
2018,05,23,15,56,24.10
2018,05,23,15,57,24.10
2018,05,23,15,58,24.00
2018,05,23,15,59,23.90
2018,05,23,16,00,23.90
2018,05,23,16,01,23.90
2018,05,23,16,02,23.80
2018,05,23,16,03,23.80
2018,05,23,16,04,23.90
2018,05,23,16,05,23.80
2018,05,23,16,06,23.90
2018,05,23,16,07,23.90
2018,05,23,16,08,24.00
2018,05,23,16,09,24.10
2018,05,23,16,10,24.10
2018,05,23,16,11,24.10
2018,05,23,16,12,24.10
2018,05,23,16,13,24.10
2018,05,23,16,14,24.20
2018,05,23,16,15,24.20
2018,05,23,16,16,24.20
2018,05,23,16,17,24.20
2018,05,23,16,18,24.20
2018,05,23,16,19,24.20
2018,05,23,16,20,24.30
2018,05,23,16,21,24.30
2018,05,23,16,22,24.30
2018,05,23,16,23,24.30
2018,05,23,16,24,24.30
2018,05,23,16,25,24.30
2018,05,23,16,26,24.20
2018,05,23,16,27,24.10
2018,05,23,16,28,24.10
2018,05,23,16,29,24.10
2018,05,23,16,30,24.10
2018,05,23,16,31,24.10
2018,05,23,16,32,24.10
2018,05,23,16,33,24.10
2018,05,23,16,34,24.20
2018,05,23,16,35,24.20
2018,05,23,16,36,24.20
2018,05,23,16,37,24.20
2018,05,23,16,38,24.20
2018,05,23,16,39,24.10
2018,05,23,16,40,24.10
2018,05,23,16,41,24.10
2018,05,23,16,42,24.10
2018,05,23,16,43,24.20
2018,05,23,16,44,24.10
2018,05,23,16,45,24.10
2018,05,23,16,46,24.10
2018,05,23,16,47,24.10
2018,05,23,16,48,24.10
2018,05,23,16,49,24.10
2018,05,23,16,50,24.10
2018,05,23,16,51,24.10
2018,05,23,16,52,24.10
2018,05,23,16,53,24.00
2018,05,23,16,54,24.00
2018,05,23,16,55,23.90
2018,05,23,16,56,23.90
2018,05,23,16,57,23.90
2018,05,23,16,58,23.90
2018,05,23,16,59,24.00
2018,05,23,17,00,24.10
2018,05,23,17,01,24.10
2018,05,23,17,02,24.10
2018,05,23,17,03,24.10
2018,05,23,17,04,24.10
2018,05,23,17,05,24.10
2018,05,23,17,06,24.30
2018,05,23,17,07,24.30
2018,05,23,17,08,24.30
2018,05,23,17,09,24.20
2018,05,23,17,10,24.30
2018,05,23,17,11,24.30
2018,05,23,17,12,24.20
2018,05,23,17,13,24.30
2018,05,23,17,14,24.40
2018,05,23,17,15,24.40
2018,05,23,17,16,24.40
2018,05,23,17,17,24.40
2018,05,23,17,18,24.40
2018,05,23,17,19,24.40
2018,05,23,17,20,24.40
2018,05,23,17,21,24.40
2018,05,23,17,22,24.50
2018,05,23,17,23,24.50